CW8668 Weather Reports


time (UTC)temp
F
wind
direction
speed
knots
gust
knots
rain 1hr
in
rain 24hr
in
rain mn
in
humidity
%
barometer
mb
20260506163016 58 113 3.5 8.7 0.00 0.17 0.00 50 1007.6
20260506161516 59 113 2.6 8.7 0.00 0.17 0.00 47 1007.5
20260506160016 58 135 5.2 16.5 0.00 0.17 0.00 48 1007.6
20260506154516 58 203 7.0 20.9 0.00 0.17 0.00 48 1007.7
20260506153016 58 135 5.2 11.3 0.00 0.17 0.00 48 1007.5
20260506151515 59 248 4.3 14.8 0.00 0.17 0.00 47 1007.3
20260506150016 60 203 4.3 12.2 0.00 0.17 0.00 45 1007.5
20260506144516 60 248 5.2 14.8 0.00 0.17 0.00 44 1007.6
20260506143016 60 248 4.3 11.3 0.00 0.18 0.00 44 1007.7
20260506141516 59 203 4.3 11.3 0.00 0.19 0.00 47 1007.7
20260506140016 58 180 3.5 12.2 0.00 0.21 0.00 50 1007.9
20260506134515 60 203 3.5 11.3 0.00 0.23 0.00 49 1007.9
20260506133016 58 180 5.2 12.2 0.00 0.24 0.00 52 1008.0
20260506131516 57 203 5.2 12.2 0.00 0.24 0.00 54 1008.3
20260506130016 57 158 4.3 13.9 0.00 0.24 0.00 54 1008.5
20260506124516 58 225 0.9 5.2 0.00 0.24 0.00 52 1008.4
20260506123015 57 293 1.7 7.0 0.00 0.24 0.00 55 1008.4
20260506121515 57 135 2.6 7.8 0.00 0.24 0.00 55 1008.4
20260506120016 56 113 4.3 9.6 0.00 0.24 0.00 55 1008.5
20260506114515 56 135 5.2 9.6 0.00 0.24 0.00 59 1008.5
20260506113016 56 45 5.2 11.3 0.00 0.24 0.00 58 1008.7
20260506111516 56 45 5.2 11.3 0.00 0.24 0.00 60 1008.6
20260506110016 54 45 7.0 14.8 0.00 0.24 0.00 63 1008.9
20260506104515 53 45 8.7 14.8 0.00 0.24 0.00 65 1008.8
20260506103015 53 45 8.7 15.6 0.00 0.24 0.00 67 1008.9
20260506101516 52 45 9.6 15.6 0.00 0.24 0.00 67 1009.0
20260506100015 52 45 9.6 15.6 0.00 0.24 0.00 69 1008.9
20260506094515 52 45 8.7 14.8 0.00 0.24 0.00 70 1008.8
20260506093016 51 203 1.7 7.0 0.00 0.24 0.00 74 1008.7
20260506091515 50 203 2.6 6.1 0.00 0.24 0.00 78 1008.6
20260506090015 48 203 3.5 8.7 0.00 0.24 0.00 80 1008.6
20260506084517 48 225 3.5 9.6 0.00 0.24 0.00 81 1008.6
20260506083017 48 248 3.5 9.6 0.00 0.24 0.00 83 1008.5
20260506081517 48 225 3.5 9.6 0.00 0.24 0.00 85 1008.5
20260506073017 45 225 1.7 6.1 0.00 0.24 0.00 91 1008.5
20260506071520 44 203 1.7 5.2 0.00 0.24 0.00 92 1008.6
20260506061517 42 45 0.9 2.6 0.00 0.24 0.00 92 1008.4
20260506044517 42 45 0.9 2.6 0.00 0.24 0.00 92 1007.6
20260506043057 42 45 0.9 4.3 0.00 0.24 0.00 92 1007.4
20260506041517 42 45 0.9 2.6 0.00 0.24 0.00 92 1007.4
20260506040016 43 45 0.9 2.6 0.00 0.24 0.00 91 1006.6
20260506034536 43 0.0 1.7 0.00 0.24 0.00 91 1006.6
20260506033017 43 68 0.9 4.3 0.00 0.24 0.00 91 1006.6
20260506031517 43 135 0.9 4.3 0.00 0.24 0.00 92 1006.6
20260506030037 43 23 0.9 2.6 0.00 0.24 0.00 91 1007.0
20260506024516 43 45 0.9 2.6 0.00 0.24 0.00 91 1007.0
20260506023016 43 0.0 1.7 0.00 0.24 0.00 91 1007.2
20260506021517 43 23 0.9 2.6 0.00 0.24 0.00 91 1007.2
20260506020016 44 0.0 1.7 0.00 0.24 0.00 92 1007.1
20260506014517 44 23 0.9 2.6 0.00 0.24 0.00 92 1007.0
20260506013016 44 45 0.9 2.6 0.00 0.24 0.00 92 1007.0
20260506011536 44 0.0 1.7 0.00 0.24 0.00 92 1007.1
20260506010016 44 0.0 1.7 0.00 0.24 0.00 92 1006.9
20260506004516 45 0.0 1.7 0.00 0.24 0.00 92 1006.7
20260506003017 45 0.0 1.7 0.00 0.24 0.00 92 1006.7
20260506001536 45 0.0 0.9 0.00 0.24 0.00 92 1006.8
20260506000016 45 0.0 0.9 0.00 0.24 0.24 92 1007.0
20260505234517 45 0.0 0.9 0.00 0.24 0.24 91 1006.9
20260505233016 45 0.0 1.7 0.00 0.24 0.24 91 1007.0
20260505231536 45 0.0 0.9 0.00 0.24 0.24 90 1007.1
20260505230016 45 0.0 0.9 0.00 0.24 0.24 90 1007.1
20260505224537 45 0.0 1.7 0.00 0.24 0.24 90 1006.9
20260505223017 46 0.0 1.7 0.00 0.24 0.24 90 1007.2
20260505221516 46 23 0.9 2.6 0.00 0.24 0.24 90 1007.4
20260505220036 46 0.0 2.6 0.00 0.24 0.24 90 1007.8
20260505214516 46 68 0.9 2.6 0.00 0.24 0.24 90 1007.9
20260505213016 47 23 0.9 2.6 0.00 0.24 0.24 90 1007.8
20260505211537 47 45 0.9 2.6 0.00 0.24 0.24 90 1007.7
20260505210036 47 0.0 2.6 0.00 0.24 0.24 90 1008.2
20260505204516 47 0.0 0.9 0.00 0.25 0.24 90 1008.1
20260505203016 47 0.0 2.6 0.00 0.29 0.24 89 1007.9
20260505201516 48 0.0 1.7 0.00 0.34 0.24 89 1007.5
20260505200036 48 0.0 0.9 0.00 0.34 0.24 88 1008.1
20260505194516 48 0.0 0.9 0.00 0.34 0.24 88 1007.8
20260505193016 49 248 0.9 2.6 0.00 0.34 0.24 87 1007.9
20260505191516 49 23 0.9 2.6 0.00 0.34 0.24 86 1007.8
20260505190036 49 23 2.6 5.2 0.00 0.34 0.24 86 1007.7
20260505184516 49 23 1.7 4.3 0.00 0.34 0.24 85 1007.6
20260505183016 49 23 1.7 5.2 0.00 0.34 0.24 84 1007.5
20260505181516 49 23 1.7 5.2 0.01 0.34 0.24 84 1007.5
20260505180016 49 23 2.6 6.1 0.09 0.34 0.24 83 1007.8
20260505174536 49 23 0.9 2.6 0.16 0.34 0.24 83 1007.8
20260505173016 49 158 0.9 2.6 0.17 0.34 0.24 82 1007.7
20260505171515 49 248 3.5 15.6 0.16 0.33 0.23 81 1008.1
20260505170036 50 248 9.6 21.7 0.08 0.25 0.15 76 1008.3
20260505164515 56 180 1.7 18.2 0.01 0.18 0.08 73 1007.1